FW5754 Weather Reports


Display with metric or nautical units.
time (UTC)temp
F
wind
direction
speed
MPH
gust
MPH
rain 1hr
in
rain 24hr
in
rain mn
in
humidity
%
barometer
mb
20260905000058 75 310 8.0 9.0 0.00 0.10 0.10 79 1010.6
20260904235532 75 311 7.0 9.0 0.00 0.10 0.10 80 1010.6
20260904235033 75 311 5.0 9.0 0.00 0.10 0.10 80 1010.6
20260904234556 75 311 5.0 8.0 0.00 0.10 0.10 80 1010.6
20260904234035 75 311 6.0 10.0 0.00 0.10 0.10 79 1010.4
20260904233534 75 311 7.0 10.0 0.00 0.10 0.10 78 1010.4
20260904233100 76 311 8.0 13.0 0.00 0.10 0.10 76 1010.3
20260904232534 76 311 9.0 13.0 0.00 0.10 0.10 76 1010.5
20260904232038 76 308 10.0 13.0 0.00 0.10 0.10 75 1010.4
20260904231551 75 308 10.0 12.0 0.00 0.10 0.10 77 1010.2
20260904231037 76 311 10.0 12.0 0.00 0.10 0.10 76 1010.2
20260904230531 76 313 9.0 11.0 0.00 0.10 0.10 76 1010.2
20260904230047 76 313 9.0 11.0 0.00 0.10 0.10 76 1010.2
20260904225535 76 313 9.0 11.0 0.00 0.10 0.10 76 1010.3
20260904225034 75 313 7.0 11.0 0.00 0.10 0.10 78 1010.3
20260904224558 75 313 8.0 11.0 0.00 0.10 0.10 77 1010.4
20260904224031 76 313 9.0 11.0 0.00 0.10 0.10 76 1010.4
20260904223534 76 314 9.0 12.0 0.00 0.10 0.10 75 1010.3
20260904223052 76 314 9.0 12.0 0.00 0.10 0.10 74 1010.3
20260904222534 76 314 9.0 11.0 0.00 0.10 0.10 73 1010.3
20260904222033 76 315 7.0 9.0 0.00 0.10 0.10 76 1010.3
20260904221548 76 315 5.0 8.0 0.00 0.10 0.10 77 1010.3
20260904221032 76 315 5.0 6.0 0.00 0.10 0.10 78 1010.2
20260904220531 76 315 4.0 6.0 0.00 0.10 0.10 78 1010.2
20260904220046 77 315 5.0 9.0 0.00 0.10 0.10 77 1010.4
20260904215533 77 315 6.0 9.0 0.00 0.10 0.10 76 1010.3
20260904215033 77 315 6.0 8.0 0.00 0.10 0.10 74 1010.3
20260904214552 77 315 6.0 9.0 0.00 0.10 0.10 75 1010.3
20260904214035 76 315 6.0 9.0 0.00 0.10 0.10 75 1010.3
20260904213531 76 315 6.0 9.0 0.00 0.10 0.10 77 1010.2
20260904213050 77 315 5.0 9.0 0.00 0.10 0.10 76 1010.1
20260904212534 77 315 7.0 9.0 0.00 0.10 0.10 75 1010.1
20260904212033 77 315 5.0 10.0 0.00 0.10 0.10 77 1010.2
20260904211548 77 315 6.0 10.0 0.00 0.10 0.10 79 1010.2
20260904211030 77 315 9.0 10.0 0.00 0.10 0.10 76 1010.2
20260904210532 77 315 7.0 10.0 0.00 0.10 0.10 76 1010.2
20260904210047 77 315 7.0 10.0 0.00 0.10 0.10 76 1010.2
20260904205534 76 315 6.0 9.0 0.00 0.10 0.10 78 1010.3
20260904205034 77 315 6.0 10.0 0.00 0.10 0.10 78 1010.3
20260904204558 77 315 6.0 11.0 0.00 0.10 0.10 75 1010.2
20260904204032 77 316 9.0 11.0 0.00 0.10 0.10 73 1010.3
20260904203534 77 315 8.0 11.0 0.00 0.10 0.10 72 1010.2
20260904203051 77 316 8.0 11.0 0.00 0.10 0.10 74 1010.1
20260904202534 77 317 7.0 10.0 0.00 0.10 0.10 74 1010.2
20260904202033 77 317 6.0 10.0 0.00 0.10 0.10 76 1010.2
20260904201548 77 317 7.0 11.0 0.00 0.10 0.10 74 1010.2
20260904201033 77 317 7.0 12.0 0.00 0.10 0.10 73 1010.1
20260904200533 78 317 9.0 13.0 0.00 0.10 0.10 72 1010.2
20260904200052 77 316 9.0 13.0 0.00 0.10 0.10 73 1010.2
20260904195532 77 317 9.0 13.0 0.00 0.10 0.10 74 1010.2
20260904195031 77 315 7.0 10.0 0.00 0.10 0.10 74 1010.2
20260904194559 77 316 7.0 10.0 0.00 0.10 0.10 74 1010.2
20260904194034 77 316 8.0 11.0 0.00 0.10 0.10 74 1010.2
20260904193532 78 319 6.0 13.0 0.00 0.10 0.10 75 1010.3
20260904193049 78 320 9.0 13.0 0.00 0.10 0.10 75 1010.3
20260904192534 78 317 11.0 13.0 0.00 0.10 0.10 72 1010.3
20260904192033 78 321 10.0 12.0 0.00 0.10 0.10 72 1010.4
20260904191548 78 313 8.0 10.0 0.00 0.10 0.10 72 1010.4
20260904191032 78 286 6.0 9.0 0.00 0.10 0.10 75 1010.6
20260904190531 78 294 5.0 9.0 0.00 0.10 0.10 76 1010.6
20260904190048 78 317 4.0 8.0 0.00 0.10 0.10 77 1010.5
20260904185533 77 320 5.0 6.0 0.00 0.10 0.10 76 1010.6
20260904185034 77 320 5.0 6.0 0.00 0.10 0.10 76 1010.5
20260904184603 78 320 5.0 8.0 0.00 0.10 0.10 76 1010.4
20260904184033 78 320 5.0 8.0 0.00 0.10 0.10 73 1010.5
20260904183532 78 320 4.0 6.0 0.00 0.10 0.10 75 1010.5
20260904183046 78 320 4.0 6.0 0.00 0.10 0.10 74 1010.5
20260904182533 78 320 5.0 6.0 0.00 0.10 0.10 77 1010.6
20260904182032 78 320 3.0 8.0 0.00 0.10 0.10 75 1010.5
20260904181557 78 320 5.0 8.0 0.00 0.10 0.10 75 1010.4
20260904181032 78 320 3.0 8.0 0.00 0.10 0.10 75 1010.5
20260904180534 78 320 3.0 5.0 0.00 0.10 0.10 74 1010.4
20260904180108 78 320 2.0 4.0 0.00 0.10 0.10 74 1010.4
20260904175533 78 320 3.0 5.0 0.00 0.10 0.10 74 1010.5
20260904175032 78 320 3.0 5.0 0.00 0.10 0.10 75 1010.6
20260904174558 78 320 3.0 6.0 0.00 0.10 0.10 74 1010.5
20260904174031 77 320 4.0 6.0 0.00 0.10 0.10 74 1010.6
20260904173533 77 320 4.0 6.0 0.00 0.10 0.10 74 1010.6
20260904173052 77 320 5.0 6.0 0.00 0.10 0.10 75 1010.6
20260904172531 77 320 5.0 9.0 0.00 0.10 0.10 75 1010.5
20260904172032 77 320 6.0 10.0 0.00 0.10 0.10 75 1010.4
20260904171600 77 320 7.0 10.0 0.00 0.10 0.10 73 1010.6
20260904171033 77 320 6.0 9.0 0.00 0.10 0.10 78 1010.6
20260904170533 77 320 6.0 9.0 0.00 0.10 0.10 78 1010.7
20260904170100 76 320 7.0 9.0 0.00 0.10 0.10 77 1010.8
20260904165533 77 320 7.0 10.0 0.00 0.10 0.10 77 1010.7
20260904165036 77 320 7.0 10.0 0.00 0.10 0.10 76 1010.7
20260904164558 77 320 6.0 12.0 0.00 0.10 0.10 78 1010.7
20260904164035 77 320 9.0 13.0 0.00 0.10 0.10 77 1010.7
20260904163533 77 313 9.0 13.0 0.00 0.10 0.10 77 1010.8
20260904163058 77 315 10.0 14.0 0.00 0.10 0.10 75 1010.7
20260904162532 77 317 9.0 14.0 0.00 0.10 0.10 76 1010.7
20260904162031 77 312 9.0 12.0 0.00 0.10 0.10 76 1010.8
20260904161602 76 325 9.0 13.0 0.00 0.10 0.10 78 1010.7
20260904161032 76 319 9.0 13.0 0.00 0.10 0.10 79 1010.7
20260904160533 76 325 10.0 16.0 0.00 0.10 0.10 78 1010.8
20260904160045 77 319 11.0 16.0 0.00 0.10 0.10 78 1010.8
20260904155535 76 319 14.0 16.0 0.00 0.10 0.10 76 1010.9
20260904155031 76 329 12.0 15.0 0.00 0.10 0.10 78 1010.8
20260904154555 76 309 12.0 15.0 0.00 0.10 0.10 77 1010.9
20260904154033 76 328 12.0 15.0 0.00 0.10 0.10 78 1011.0
20260904153532 76 329 10.0 13.0 0.00 0.10 0.10 80 1011.0
20260904153059 76 332 8.0 11.0 0.00 0.10 0.10 81 1011.0
20260904152531 76 332 8.0 11.0 0.00 0.10 0.10 82 1011.0
20260904152031 75 331 9.0 11.0 0.00 0.10 0.10 82 1011.0
20260904151557 75 327 8.0 11.0 0.00 0.10 0.10 84 1011.1
20260904151031 75 329 6.0 9.0 0.00 0.10 0.10 86 1011.0
20260904150533 75 329 5.0 8.0 0.00 0.10 0.10 87 1011.0
20260904150053 75 329 6.0 8.0 0.00 0.10 0.10 86 1011.1
20260904145531 74 329 4.0 6.0 0.00 0.10 0.10 88 1011.1
20260904145031 74 329 4.0 6.0 0.00 0.10 0.10 88 1011.0
20260904144553 74 329 4.0 6.0 0.00 0.10 0.10 88 1011.1
20260904144031 74 329 4.0 6.0 0.00 0.10 0.10 89 1011.1
20260904143532 74 329 4.0 6.0 0.00 0.10 0.10 89 1011.2
20260904143048 74 329 4.0 6.0 0.00 0.10 0.10 89 1011.1
20260904142533 74 329 4.0 5.0 0.00 0.10 0.10 89 1011.2
20260904142033 74 329 3.0 4.0 0.00 0.10 0.10 89 1011.1
20260904141605 74 329 2.0 5.0 0.00 0.10 0.10 90 1011.0
20260904141032 74 329 3.0 5.0 0.00 0.10 0.10 90 1011.1
20260904140531 73 329 3.0 5.0 0.00 0.10 0.10 90 1011.1
20260904140053 73 329 4.0 4.0 0.00 0.10 0.10 91 1011.2
20260904135532 73 329 3.0 6.0 0.00 0.10 0.10 90 1011.1
20260904135031 73 329 4.0 6.0 0.00 0.10 0.10 91 1011.0
20260904134555 73 329 4.0 5.0 0.00 0.10 0.10 91 1011.0
20260904134031 73 329 3.0 5.0 0.00 0.10 0.10 91 1011.1
20260904133531 73 329 1.0 4.0 0.00 0.10 0.10 92 1011.0
20260904133045 73 329 2.0 4.0 0.00 0.10 0.10 92 1011.0
20260904132531 73 329 2.0 3.0 0.00 0.10 0.10 92 1011.1
20260904132033 73 329 2.0 4.0 0.00 0.10 0.10 93 1011.1
20260904131626 72 329 2.0 4.0 0.00 0.10 0.10 93 1011.1
20260904131033 72 329 1.0 3.0 0.00 0.10 0.10 92 1011.1
20260904130532 72 329 2.0 4.0 0.00 0.10 0.10 93 1011.2
20260904130055 72 329 2.0 4.0 0.00 0.10 0.10 92 1011.2
20260904125532 72 329 2.0 5.0 0.00 0.10 0.10 92 1011.3
20260904125032 72 329 3.0 5.0 0.00 0.10 0.10 92 1011.3
20260904124557 72 329 4.0 8.0 0.00 0.10 0.10 92 1011.2
20260904124032 72 329 5.0 8.0 0.00 0.10 0.10 92 1011.2
20260904123533 72 329 5.0 8.0 0.00 0.10 0.10 92 1011.3
20260904123106 72 329 4.0 9.0 0.00 0.10 0.10 92 1011.3
20260904122534 72 329 7.0 9.0 0.00 0.10 0.10 91 1011.3
20260904122031 72 329 5.0 9.0 0.00 0.10 0.10 91 1011.2
20260904121549 72 329 8.0 9.0 0.00 0.10 0.10 90 1011.3
20260904121033 72 329 5.0 6.0 0.00 0.10 0.10 90 1011.2
20260904120531 72 329 5.0 6.0 0.00 0.10 0.10 90 1011.1
20260904120048 72 329 5.0 6.0 0.00 0.10 0.10 90 1011.0
20260904115531 72 329 4.0 5.0 0.00 0.10 0.10 89 1010.8
20260904115034 72 329 4.0 5.0 0.00 0.10 0.10 89 1010.9
20260904114546 72 329 4.0 5.0 0.00 0.10 0.10 89 1010.9
20260904114034 72 329 3.0 4.0 0.00 0.10 0.10 89 1010.8
20260904113531 72 329 2.0 3.0 0.00 0.10 0.10 89 1010.8
20260904113045 71 329 2.0 4.0 0.00 0.10 0.10 89 1010.7
20260904112532 71 0 0.0 4.0 0.00 0.10 0.10 89 1010.7
20260904112032 71 329 3.0 4.0 0.00 0.10 0.10 89 1010.8
20260904111600 71 329 2.0 6.0 0.00 0.10 0.10 89 1010.8
20260904111031 72 329 2.0 8.0 0.00 0.10 0.10 89 1010.8
20260904110531 72 329 5.0 10.0 0.00 0.10 0.10 89 1010.8
20260904110046 72 329 7.0 10.0 0.00 0.10 0.10 88 1010.8
20260904105535 72 329 9.0 10.0 0.00 0.10 0.10 88 1010.7
20260904105033 72 324 8.0 10.0 0.00 0.10 0.10 89 1010.5
20260904104546 72 313 8.0 9.0 0.00 0.10 0.10 89 1010.6
20260904104033 72 298 4.0 7.0 0.00 0.10 0.10 89 1010.4
20260904103536 71 298 4.0 7.0 0.00 0.10 0.10 89 1010.3
20260904103059 71 298 5.0 7.0 0.00 0.10 0.10 89 1010.2
20260904102530 71 298 3.0 5.0 0.00 0.10 0.10 91 1010.2
20260904102031 71 298 2.0 5.0 0.00 0.10 0.10 91 1010.3
20260904101559 71 298 2.0 5.0 0.00 0.10 0.10 92 1010.4
20260904101031 70 298 1.0 5.0 0.01 0.10 0.10 91 1010.2
20260904100531 70 298 1.0 4.0 0.02 0.10 0.10 91 1010.3
20260904100046 70 298 1.0 4.0 0.03 0.10 0.10 90 1010.4
20260904095533 70 298 0.0 2.0 0.04 0.10 0.10 91 1010.3
20260904095032 71 0 0.0 2.0 0.04 0.10 0.10 91 1010.2
20260904094546 71 0 0.0 2.0 0.04 0.10 0.10 91 1010.3
20260904094031 71 0 0.0 4.0 0.04 0.10 0.10 90 1010.2
20260904093532 71 0 1.0 4.0 0.04 0.10 0.10 90 1010.0
20260904093053 71 0 1.0 3.0 0.04 0.10 0.10 90 1009.8
20260904092530 71 298 1.0 7.0 0.04 0.10 0.10 90 1009.8
20260904092032 71 0 1.0 14.0 0.04 0.10 0.10 89 1009.5
20260904091548 72 298 6.0 17.0 0.03 0.09 0.09 89 1009.8
20260904091032 73 302 9.0 17.0 0.03 0.09 0.09 91 1010.2
20260904090530 72 304 12.0 17.0 0.03 0.08 0.08 91 1010.2
20260904090046 72 316 10.0 15.0 0.02 0.07 0.07 92 1010.5
20260904085534 72 315 12.0 15.0 0.01 0.19 0.06 92 1010.8
20260904085030 72 312 9.0 11.0 0.02 0.19 0.06 93 1010.9
20260904084558 72 288 4.0 7.0 0.03 0.19 0.06 92 1010.6
20260904084032 72 216 3.0 4.0 0.04 0.19 0.06 92 1010.4
20260904083532 72 216 1.0 2.0 0.05 0.19 0.06 92 1010.4
20260904083056 72 0 0.0 0.0 0.05 0.19 0.06 91 1010.2
20260904082531 72 0 0.0 2.0 0.05 0.19 0.06 91 1010.0
20260904082031 72 0 0.0 2.0 0.05 0.19 0.06 92 1010.0
20260904081551 72 0 1.0 2.0 0.06 0.19 0.06 91 1009.9
20260904081030 72 0 0.0 2.0 0.06 0.19 0.06 91 1009.8
20260904080530 72 0 0.0 3.0 0.05 0.18 0.05 91 1009.6
20260904080046 72 0 0.0 4.0 0.05 0.18 0.05 91 1009.7
20260904075532 72 0 1.0 4.0 0.05 0.26 0.05 91 1010.0
20260904075031 72 0 1.0 7.0 0.04 0.25 0.04 91 1010.2
20260904074612 72 216 2.0 8.0 0.03 0.24 0.03 90 1010.4
20260904074032 73 208 4.0 8.0 0.02 0.23 0.02 90 1010.5
20260904073530 73 272 3.0 8.0 0.01 0.22 0.01 90 1010.6
20260904073050 73 275 4.0 8.0 0.01 0.22 0.01 91 1010.7
20260904072530 73 277 4.0 10.0 0.01 0.22 0.01 91 1010.6
20260904072032 73 278 6.0 11.0 0.01 0.22 0.01 90 1010.6
20260904071549 73 277 7.0 11.0 0.00 0.21 0.00 90 1010.7
20260904071032 73 271 7.0 10.0 0.00 0.21 0.00 90 1010.6
20260904070533 74 229 3.0 5.0 0.00 0.21 0.00 92 1010.6
20260904070048 74 225 1.0 6.0 0.00 0.21 0.00 92 1010.3
20260904065532 74 225 4.0 6.0 0.00 0.22 0.00 92 1010.5
20260904065031 74 224 4.0 5.0 0.00 0.22 0.00 92 1010.8
20260904064553 74 222 3.0 5.0 0.00 0.22 0.00 92 1010.9
20260904064032 74 219 3.0 5.0 0.00 0.22 0.00 92 1010.7
20260904063530 74 208 1.0 3.0 0.00 0.22 0.00 92 1010.7
20260904063105 74 0 0.0 2.0 0.00 0.22 0.00 92 1010.8
20260904062533 74 208 0.0 2.0 0.00 0.22 0.00 93 1010.8
20260904062031 74 0 0.0 2.0 0.00 0.22 0.00 93 1010.7
20260904061551 74 0 0.0 4.0 0.00 0.22 0.00 92 1010.6
20260904061033 74 0 0.0 4.0 0.00 0.22 0.00 93 1010.6
20260904060533 73 207 2.0 3.0 0.00 0.22 0.00 93 1010.8
20260904060108 73 207 0.0 3.0 0.00 0.22 0.00 93 1010.8
20260904055530 73 208 2.0 4.0 0.00 0.22 0.00 93 1010.8
20260904055031 73 207 2.0 4.0 0.00 0.22 0.00 93 1010.8
20260904054555 73 207 1.0 4.0 0.00 0.22 0.00 93 1010.8
20260904054030 73 0 0.0 0.0 0.00 0.22 0.00 93 1011.0
20260904053530 73 0 0.0 0.0 0.00 0.22 0.00 93 1011.1
20260904053049 73 0 0.0 0.0 0.00 0.22 0.00 93 1011.1
20260904052531 73 0 0.0 0.0 0.00 0.22 0.00 92 1011.1
20260904052035 73 0 0.0 0.0 0.00 0.22 0.00 93 1011.3
20260904051548 73 0 0.0 0.0 0.00 0.22 0.00 93 1011.5
20260904051036 73 0 0.0 0.0 0.00 0.22 0.00 93 1011.6
20260904050532 73 0 0.0 0.0 0.00 0.22 0.00 93 1011.6
20260904050046 73 0 0.0 0.0 0.00 0.22 0.00 93 1011.6
20260904045532 73 0 0.0 0.0 0.00 0.22 0.00 93 1011.6
20260904045032 73 0 0.0 0.0 0.00 0.22 0.00 93 1011.6
20260904044555 74 0 0.0 0.0 0.00 0.22 0.00 92 1011.7
20260904044031 74 0 0.0 0.0 0.00 0.22 0.00 93 1011.8
20260904043530 73 0 0.0 0.0 0.00 0.22 0.00 93 1011.9
20260904043049 73 0 0.0 0.0 0.00 0.22 0.00 93 1011.9
20260904042530 73 0 0.0 0.0 0.00 0.22 0.00 93 1011.9
20260904042031 73 0 0.0 0.0 0.00 0.22 0.00 91 1012.1
20260904041559 73 0 0.0 0.0 0.00 0.22 0.00 92 1012.1
20260904041030 73 0 0.0 0.0 0.00 0.22 0.00 91 1012.1
20260904040534 73 0 0.0 0.0 0.00 0.22 0.00 91 1012.1
20260904040059 74 0 0.0 0.0 0.00 0.22 0.00 91 1012.1
20260904035533 74 0 0.0 0.0 0.00 0.22 0.22 91 1012.2
20260904035032 74 0 0.0 0.0 0.00 0.22 0.22 91 1012.2
20260904034601 74 0 0.0 0.0 0.00 0.22 0.22 91 1012.2
20260904034030 74 0 0.0 2.0 0.00 0.22 0.22 91 1012.3
20260904033530 74 0 0.0 2.0 0.00 0.22 0.22 91 1012.3
20260904033048 74 0 0.0 5.0 0.00 0.22 0.22 90 1012.4
20260904032533 74 207 1.0 5.0 0.00 0.22 0.22 90 1012.5
20260904032030 74 207 1.0 5.0 0.00 0.22 0.22 90 1012.4
20260904031546 74 208 2.0 6.0 0.00 0.22 0.22 90 1012.4
20260904031031 74 207 1.0 6.0 0.00 0.22 0.22 90 1012.4
20260904030536 74 208 2.0 6.0 0.00 0.22 0.22 91 1012.5
20260904030055 74 208 0.0 4.0 0.00 0.22 0.22 90 1012.5
20260904025536 74 0 0.0 4.0 0.00 0.22 0.22 90 1012.3
20260904025031 74 208 1.0 4.0 0.00 0.22 0.22 90 1012.2
20260904024549 74 208 2.0 3.0 0.00 0.22 0.22 90 1012.3
20260904024031 74 208 2.0 4.0 0.00 0.22 0.22 89 1012.3
20260904023533 74 208 2.0 4.0 0.00 0.22 0.22 89 1012.3
20260904023047 74 208 0.0 3.0 0.00 0.22 0.22 88 1012.4
20260904022532 74 0 0.0 2.0 0.00 0.22 0.22 88 1012.5
20260904022034 75 0 0.0 5.0 0.00 0.22 0.22 87 1012.7
20260904021548 75 208 1.0 5.0 0.00 0.22 0.22 87 1012.8
20260904021031 75 208 2.0 5.0 0.00 0.22 0.22 87 1012.9
20260904020531 75 208 1.0 6.0 0.00 0.22 0.22 87 1013.0
20260904020057 75 208 2.0 6.0 0.00 0.22 0.22 87 1012.9
20260904015532 75 208 2.0 8.0 0.00 0.22 0.22 87 1013.2
20260904015031 75 207 2.0 8.0 0.00 0.22 0.22 86 1013.2
20260904014553 75 209 2.0 5.0 0.00 0.22 0.22 87 1013.2
20260904014032 75 209 2.0 5.0 0.00 0.22 0.22 87 1013.1
20260904013529 75 0 1.0 5.0 0.00 0.22 0.22 87 1012.9
20260904013049 75 209 2.0 5.0 0.00 0.22 0.22 87 1012.9
20260904012535 75 209 2.0 5.0 0.00 0.22 0.22 87 1013.0
20260904012036 75 209 2.0 5.0 0.00 0.22 0.22 87 1013.1
20260904011559 75 209 1.0 5.0 0.00 0.22 0.22 87 1013.1
20260904011037 75 209 2.0 6.0 0.00 0.22 0.22 87 1013.1
20260904010532 75 209 2.0 8.0 0.00 0.22 0.22 87 1013.0
20260904010101 75 210 3.0 7.0 0.00 0.22 0.22 87 1013.1
20260904005531 75 213 2.0 6.0 0.00 0.22 0.22 88 1013.2
20260904005030 75 214 2.0 8.0 0.00 0.22 0.22 88 1013.1
20260904004600 75 222 2.0 8.0 0.00 0.22 0.22 88 1013.1
20260904004033 75 263 3.0 8.0 0.00 0.22 0.22 88 1013.2
20260904003531 75 277 1.0 6.0 0.00 0.22 0.22 89 1013.2
20260904003050 75 277 1.0 7.0 0.00 0.22 0.22 89 1013.1
20260904002530 75 277 2.0 7.0 0.00 0.22 0.22 89 1012.9
20260904002030 75 277 1.0 6.0 0.00 0.22 0.22 89 1012.8
20260904001547 74 277 1.0 3.0 0.00 0.22 0.22 89 1012.6
20260904001031 74 277 0.0 2.0 0.00 0.22 0.22 89 1012.5
20260904000529 74 277 0.0 3.0 0.00 0.22 0.22 89 1012.5